STARLINK-4305, 53060

Orbit data source: Space-Track

STARLINK-4305, 53060 is a payload satellite owned by SpaceX/Seattle (US) in SSO that was launched on Mon, 11 Jul 2022 UTC via an FALCON 9 launch vehicle from the Air Force Western Test Range (AFWTR). Payload-class satellites include a variety of spacecraft equipped with specific instruments for various scientific and technological missions. These include communications satellites like Starlink; space stations such as the ISS; scientific satellites like the Hubble; Earth observation satellites from companies like Planet Labs, Umbra, and HawkEye 360; GPS; miniature CubeSats for education and research; and military/defense satellites.

Loading next visibility...
Identifier
53060, 2022-077T
Orbit
SSO
Country
Flag of USUS
Related business
Manufacturer
SpaceX/Seattle
Mission
Operational Commercial Communications
Bus & Motor
STARLINK, Unknown motor
Mass
297 kg wet, ~275 kg dry
Launch date (UTC)
2022-07-11 (3 years ago)
Launch vehicle
FALCON 9
Launch site
Air Force Western Test Range (AFWTR)
Object type
Payload
Rocket body
Debris
Shape & HBR
Box + 1 Pan, 10.1 m
Radar Cross Section
13.562 m², Large (>1 m²)

Expand to show TLE details & history
Last TLE update: 17 hours ago

TLE from 17 hours ago
0 STARLINK-4305
1 53060U 22077T   25349.37200210  .00000421  00000-0  37298-4 0  9990
2 53060  97.6020 167.6748 0003139  48.7099 311.4396 15.01259034188264
Epoch: 2025-12-15T08:55Z
TLE epoch observation values (Epoch: 2025-12-15T08:55:40.981Z)
Latitude
0.00005°
Longitude
-50.51748°
Altitude
564.63 km
Speed
7.58 km/s
True Right ascension
11h 10m 41s
True Declination
0° 00' 00"
Sunlit
Object was in daylight at epoch
Visualization orbit readout
Latitude
Unknown
Longitude
Unknown
Altitude
Unknown
Speed
Unknown
Apparent Right ascension
Unknown
Apparent Declination
Unknown
Sunlit
N/A
Visualization observer readout
Local Sidereal Time
00:19:32
Azimuth
Unknown
Elevation
Unknown
Doppler factor
Unknown
Orbital elements
Apogee altitude
562.19 km
Perigee altitude
557.834 km
Semi-major axis
6,938.149 km
Eccentricity
0.00031
Inclination
97.602°
RAAN
167.6748°
Arg. of periapsis
48.7099°
True anomaly
311.41263°
Mean anomaly
311.4396°
Eccentric anomaly
311.42611°
Mean motion
3.75559 °/min
Orbital period
95.86 mins
BSTAR
0.000037298
Loading maneuver chart data...
Computing Atmospheric mass density...
Loading historical data...
Loading historical data...
Loading historical data...
Loading historical data...
Loading historical data...
Loading historical data...
Loading historical data...

Documentation

Showing up to 5 results
|